Location: Allie Creek
(37.5926°N, 89.8526°W)
Time: 07:03:14
(UTC+00:00)

Meteor 1-27 Rocket - Pass Details

Date: 04 August 2025
Orbit: 828 x 909 km, 81.3° (Epoch: 07 December)

Event Time Altitude Azimuth Distance (km) Brightness Sun altitude
Rises 04:04:37 0° 14° (NNE) 3,514 7.5 -28.3°
Reaches altitude 10° 04:10:17 10° 58° (ENE) 2,542 6.2 -28.9°
Enters shadow 04:10:39 10° 62° (ENE) 2,533 6.1 -28.9°
